GAOFEN-13 01

Last updated on Tue Sep 22 2026 00:03:15 GMT+0000 (Coordinated Universal Time)

1 46610U 20071A 26264.58397110 -.00000366 00000+0 00000+0 0 9995 2 46610 0.1476 80.5325 0059043 121.2331 127.4108 1.00271587 21887
UTC large
Height (km)
Speed (km/s)
/
Latitude / Longitude
Inclination (degrees)
Orbital Period (minutes)
Azimuth
Elevation
Range (km)
Doppler Factor

Next 0 passes for location: London (51.5072 / 0.1276)

No passes found over London.
GAOFEN-13 01